Location: Bothell
(47.7630°N, 122.2040°W)
Time: 16:58:36
(UTC-07:00)

Amateur Radio Satellites - All Passes

Search period start: 24 March 2017 16:28
Search period end: 25 March 2017 16:28
Location: Bothell, 47.7630°N, 122.2040°W

Satellite Date Start Highest point End Downlink Frequencies (MHz)
Time Altitude Azimuth
KKS-1 24 Mar 16:47:55 16:51:07 19° 92° (E) 16:54:19 437.445
MOZHAYETS 4 24 Mar 16:49:31 16:54:07 81° 103° (ESE) 16:58:41
XW-2B 24 Mar 17:00:23 17:01:25 11° 59° (ENE) 17:02:26 145.730 - 145.750
CUTE-I 24 Mar 17:01:44 17:05:25 19° 57° (ENE) 17:09:06 437.470
O/OREOS (USA 219) 24 Mar 17:03:00 17:06:04 18° 100° (E) 17:09:08 437.305
KAITUO 1B 24 Mar 17:07:00 17:07:36 10° 59° (ENE) 17:08:11 145.475/437.950
ITAMSAT 1 24 Mar 17:08:59 17:11:43 14° 272° (W) 17:14:29 435.822/435.867
XW-2C 24 Mar 17:09:25 17:11:23 14° 62° (ENE) 17:13:22 145.795 - 145.815
PCSat 24 Mar 17:21:01 17:24:28 17° 28° (NNE) 17:27:56 145.827
RS-15 24 Mar 17:26:22 17:37:37 38° 345° (NNW) 17:48:54 29.354- 29.394
DOVE 4 24 Mar 17:28:58 17:33:11 34° 66° (ENE) 17:37:40 437.250
STARS 24 Mar 17:30:08 17:33:40 23° 93° (E) 17:37:10 437.465
CUBESAT XI-V 24 Mar 17:35:43 17:40:09 43° 98° (E) 17:44:36 437.345
SO-50 24 Mar 17:36:55 17:41:03 31° 320° (NW) 17:45:10 436.795
BEESAT 24 Mar 17:51:39 17:54:33 16° 302° (WNW) 17:57:27 436.000
AO-7 24 Mar 17:55:21 17:59:57 16° 274° (W) 18:04:36 .
YUBILEINY 24 Mar 17:55:57 18:03:01 26° 60° (ENE) 18:10:01 435.215
LilacSat-2 24 Mar 17:58:22 18:02:03 45° 71° (ENE) 18:05:42 437.200
XW-2F 24 Mar 18:01:00 18:04:37 44° 71° (ENE) 18:08:15 145.980 - 146.000
ITUPSAT 1 24 Mar 18:07:05 18:09:07 13° 305° (NW) 18:11:10 437.325
CUTE 1.7 + AOD 2 24 Mar 18:15:15 18:16:31 11° 58° (ENE) 18:17:48 437.475
HO-68 24 Mar 18:22:46 18:28:54 32° 57° (ENE) 18:35:01 435.675
KKS-1 24 Mar 18:23:37 18:28:00 52° 290° (WNW) 18:32:21 437.445
XW-2D 24 Mar 18:25:20 18:29:10 90° 335° (NNW) 18:32:59 145.860 - 145.880
MOZHAYETS 4 24 Mar 18:28:13 18:30:40 14° 302° (WNW) 18:33:07
XW-2B 24 Mar 18:31:13 18:35:02 80° 258° (WSW) 18:38:52 145.730 - 145.750
NUDT-PHONESAT 24 Mar 18:32:43 18:36:29 87° 77° (ENE) 18:40:15 437.300
M-CUBED/EXP-1 PRIME 24 Mar 18:35:36 18:38:29 16° 96° (E) 18:41:21 437.505
KAITUO 1B 24 Mar 18:37:15 18:41:01 83° 257° (WSW) 18:44:47 145.475/437.950
CUTE-I 24 Mar 18:39:29 18:44:52 78° 256° (WSW) 18:50:17 437.470
O/OREOS (USA 219) 24 Mar 18:40:32 18:45:00 58° 299° (WNW) 18:49:33 437.305
XW-2C 24 Mar 18:41:22 18:45:09 60° 260° (W) 18:48:56 145.795 - 145.815
PCSat 24 Mar 19:03:42 19:09:05 57° 51° (NE) 19:14:25 145.827
STARS 24 Mar 19:05:59 19:10:10 42° 292° (WNW) 19:14:20 437.465
DOVE 4 24 Mar 19:06:39 19:10:52 33° 266° (W) 19:15:20 437.250
CUBEBUG 2 24 Mar 19:08:45 19:12:20 22° 62° (ENE) 19:15:53 437.445
CUBESAT XI-V 24 Mar 19:13:33 19:17:19 25° 296° (WNW) 19:21:04 437.345
STRAND 1 24 Mar 19:14:38 19:16:58 13° 87° (E) 19:19:17 437.568
XW-2A 24 Mar 19:18:26 19:21:48 52° 74° (ENE) 19:25:11 145.665 - 145.685
SO-50 24 Mar 19:21:16 19:22:56 12° 344° (NNW) 19:24:35 436.795
ZACube-1 24 Mar 19:27:08 19:29:08 13° 58° (ENE) 19:31:07 437.345
LilacSat-2 24 Mar 19:34:06 19:36:34 16° 269° (W) 19:39:01 437.200
AAUSAT CUBESAT 2 24 Mar 19:36:23 19:39:41 24° 65° (ENE) 19:43:00 437.432
XW-2F 24 Mar 19:36:35 19:39:00 16° 269° (W) 19:41:26 145.980 - 146.000
RS-15 24 Mar 19:42:47 19:54:14 40° 19° (NNE) 20:05:26 29.354- 29.394
SEEDS 24 Mar 19:44:45 19:48:50 55° 72° (ENE) 19:52:55 437.485
CUTE 1.7 + AOD 2 24 Mar 19:47:28 19:51:40 87° 84° (E) 19:55:55 437.475
YUBILEINY 24 Mar 19:52:11 20:00:55 82° 264° (W) 20:09:38 435.215
AO-73 24 Mar 19:55:12 19:58:33 21° 63° (ENE) 20:01:51 145.935
M-CUBED/EXP-1 PRIME 24 Mar 20:08:43 20:13:18 71° 292° (WNW) 20:17:57 437.505
HO-68 24 Mar 20:09:07 20:16:12 64° 257° (WSW) 20:23:19 435.675
UWE-3 24 Mar 20:14:43 20:19:15 53° 72° (ENE) 20:23:45 435.000/436.395/437.385
CUTE-I 24 Mar 20:23:55 20:25:47 12° 275° (W) 20:27:40 437.470
O/OREOS (USA 219) 24 Mar 20:24:09 20:25:29 11° 321° (NW) 20:26:48 437.305
CUBEBUG 2 24 Mar 20:43:55 20:48:35 55° 260° (W) 20:53:15 437.445
PCSat 24 Mar 20:47:40 20:52:09 27° 250° (WSW) 20:56:36 145.827
STRAND 1 24 Mar 20:51:43 20:56:53 90° 76° (ENE) 21:02:00 437.568
XW-2A 24 Mar 20:53:38 20:54:54 12° 270° (W) 20:56:09 145.665 - 145.685
Oscar 11 24 Mar 20:56:49 21:01:06 65° 73° (ENE) 21:05:23 .
ZACube-1 24 Mar 21:00:10 21:04:45 89° 74° (ENE) 21:09:16 437.345
SO-50 24 Mar 21:05:16 21:05:30 10° 9° (N) 21:05:43 436.795
AAUSAT CUBESAT 2 24 Mar 21:11:13 21:14:59 35° 263° (W) 21:18:48 437.432
DELFI C3 24 Mar 21:13:50 21:17:17 30° 68° (ENE) 21:20:45 145.870
SEEDS 24 Mar 21:22:20 21:24:52 16° 270° (W) 21:27:24 437.485
AO-73 24 Mar 21:30:02 21:34:27 51° 261° (W) 21:38:51 145.935
ISS 24 Mar 21:33:14 21:35:04 14° 136° (SE) 21:36:55 437.550
AO-85 24 Mar 21:38:09 21:41:59 30° 118° (ESE) 21:45:38 145.980
Tancredo 1 24 Mar 21:41:54 21:44:08 18° 138° (SE) 21:46:24 437.200
M-CUBED/EXP-1 PRIME 24 Mar 21:45:05 21:46:59 12° 310° (NW) 21:48:54 437.505
YUBILEINY 24 Mar 21:50:47 21:56:19 19° 286° (WNW) 22:01:54 435.215
UWE-3 24 Mar 21:52:34 21:55:59 20° 269° (W) 21:59:23 435.000/436.395/437.385
LO-87 24 Mar 21:53:13 21:54:10 11° 60° (ENE) 21:55:07 145.935 - 145.965
RS-15 24 Mar 21:56:33 22:09:01 78° 49° (NE) 22:20:56 29.354- 29.394
HO-68 24 Mar 22:02:55 22:05:21 12° 277° (W) 22:07:49 435.675
PRISM 24 Mar 22:19:12 22:22:57 32° 97° (E) 22:26:42 437.425
TIGRISAT 24 Mar 22:22:34 22:25:41 18° 90° (E) 22:28:45 435.000
UNISAT 6 24 Mar 22:31:45 22:35:24 24° 93° (E) 22:38:58 437.425
STRAND 1 24 Mar 22:32:24 22:35:21 16° 304° (NW) 22:38:17 437.568
Oscar 11 24 Mar 22:35:21 22:37:41 14° 271° (W) 22:40:00 .
ZACube-1 24 Mar 22:40:14 22:41:38 11° 273° (W) 22:43:01 437.345
SO-50 24 Mar 22:44:02 22:47:39 23° 34° (NNE) 22:51:13 436.795
VELOX 1 24 Mar 22:46:36 22:46:53 10° 54° (NE) 22:47:11 145.980
DELFI C3 24 Mar 22:48:51 22:52:06 25° 266° (W) 22:55:22 145.870
ESTCUBE 1 24 Mar 22:57:48 23:01:49 34° 67° (ENE) 23:05:51 437.505/2401.250
ISS 24 Mar 23:07:48 23:11:04 75° 153° (SSE) 23:14:22 437.550
FO-29 24 Mar 23:15:05 23:20:55 40° 95° (E) 23:26:08 435.910
Tancredo 1 24 Mar 23:16:46 23:19:56 88° 327° (NNW) 23:23:09 437.200
AO-85 24 Mar 23:18:17 23:22:19 38° 316° (NW) 23:26:08 145.980
LO-87 24 Mar 23:23:29 23:27:04 73° 258° (WSW) 23:30:42 145.935 - 145.965
BEESAT 3 24 Mar 23:31:56 23:35:39 42° 120° (ESE) 23:39:26 437.485
SPROUT 24 Mar 23:41:30 23:45:06 27° 65° (ENE) 23:48:44 437.525
BEESAT 2 24 Mar 23:43:51 23:47:05 24° 115° (ESE) 23:50:21 435.950
POLYITAN 1 24 Mar 23:53:48 23:56:20 15° 90° (E) 23:58:50 437.675
PRISM 24 Mar 23:54:38 23:58:09 27° 294° (WNW) 00:01:40 437.425
QB50P2 24 Mar 23:57:59 00:00:57 18° 91° (E) 00:03:53 145.880/145.840
TIGRISAT 24 Mar 23:58:22 00:02:43 51° 289° (WNW) 00:06:56 435.000
DX 1 25 Mar 00:02:30 00:05:57 23° 63° (ENE) 00:09:26 434.975-435.025
AIST 2D 25 Mar 00:07:46 00:10:58 32° 97° (E) 00:14:08 435.315
UNISAT 6 25 Mar 00:08:05 00:12:15 39° 292° (WNW) 00:16:19 437.425
RS-15 25 Mar 00:09:51 00:20:31 38° 254° (WSW) 00:30:49 29.354- 29.394
DUCHIFAT 1 25 Mar 00:12:59 00:16:06 20° 92° (E) 00:19:13 145.980
VELOX 1 25 Mar 00:18:07 00:22:30 70° 73° (ENE) 00:26:56 145.980
SO-50 25 Mar 00:24:05 00:28:36 76° 236° (SW) 00:33:05 436.795
50 SAT 25 Mar 00:29:26 00:32:49 56° 74° (ENE) 00:36:13 437.505
ESTCUBE 1 25 Mar 00:34:46 00:38:39 29° 265° (W) 00:42:33 437.505/2401.250
BUGSAT 1 25 Mar 00:37:41 00:39:36 13° 88° (E) 00:41:29 437.445
ISS 25 Mar 00:44:33 00:47:43 42° 353° (N) 00:50:53 437.550
UKube-1 25 Mar 00:45:37 00:49:42 43° 69° (ENE) 00:53:48 .
Tancredo 1 25 Mar 00:53:16 00:56:19 40° 356° (N) 00:59:23 437.200
NANOSAT C BR1 25 Mar 00:57:18 01:01:31 62° 101° (ESE) 01:05:41 145.865
FO-29 25 Mar 01:00:15 01:05:58 37° 298° (WNW) 01:11:07 435.910
EO-79 25 Mar 01:00:39 01:04:56 73° 103° (ESE) 01:09:08 145.935-145.965
AO-85 25 Mar 01:02:53 01:03:48 11° 338° (NNW) 01:04:43 145.980
BEESAT 3 25 Mar 01:09:58 01:13:24 27° 320° (NW) 01:16:52 437.485
SPROUT 25 Mar 01:16:57 01:20:54 35° 263° (W) 01:24:53 437.525
BEESAT 2 25 Mar 01:20:51 01:24:39 42° 315° (NW) 01:28:31 435.950
POLYITAN 1 25 Mar 01:28:19 01:32:31 58° 288° (WNW) 01:36:38 437.675
O/OREOS (USA 219) 25 Mar 01:30:17 01:32:03 12° 40° (NE) 01:33:48 437.305
QB50P2 25 Mar 01:32:54 01:37:02 49° 289° (WNW) 01:41:06 145.880/145.840
DX 1 25 Mar 01:37:48 01:41:55 41° 261° (W) 01:46:05 434.975-435.025
AIST 2D 25 Mar 01:41:29 01:43:59 19° 295° (WNW) 01:46:30 435.315
BEESAT 25 Mar 01:46:13 01:49:33 19° 59° (ENE) 01:52:54 436.000
DUCHIFAT 1 25 Mar 01:47:59 01:52:01 44° 290° (WNW) 01:55:59 145.980
Oscar 19 25 Mar 01:53:06 01:57:26 26° 94° (E) 02:01:46 437.125/150
Gurwin Techsat 1B 25 Mar 01:53:46 01:57:04 16° 88° (E) 02:00:21 435.225
VELOX 1 25 Mar 01:57:12 01:59:27 14° 271° (W) 02:01:44 145.980
ITUPSAT 1 25 Mar 02:00:35 02:04:26 25° 62° (ENE) 02:08:17 437.325
50 SAT 25 Mar 02:05:20 02:06:14 11° 271° (W) 02:07:08 437.505
SO-50 25 Mar 02:07:38 02:08:15 10° 253° (WSW) 02:08:51 436.795
BUGSAT 1 25 Mar 02:11:14 02:15:27 69° 286° (WNW) 02:19:34 437.445
MOZHAYETS 4 25 Mar 02:19:36 02:22:21 16° 59° (ENE) 02:25:07
ISS 25 Mar 02:21:20 02:24:33 50° 13° (NNE) 02:27:47 437.550
UKube-1 25 Mar 02:22:37 02:25:55 21° 267° (W) 02:29:15 .
Tancredo 1 25 Mar 02:29:39 02:32:49 55° 15° (NNE) 02:36:00 437.200
NANOSAT C BR1 25 Mar 02:34:09 02:36:46 16° 300° (WNW) 02:39:22 145.865
EO-79 25 Mar 02:37:52 02:40:09 14° 301° (WNW) 02:42:24 145.935-145.965
BEESAT 2 25 Mar 03:02:01 03:03:29 12° 337° (NNW) 03:04:56 435.950
O/OREOS (USA 219) 25 Mar 03:07:51 03:12:27 63° 62° (ENE) 03:17:00 437.305
BEESAT 25 Mar 03:22:08 03:26:52 64° 258° (WSW) 03:31:38 436.000
Oscar 19 25 Mar 03:32:02 03:36:58 47° 292° (WNW) 03:41:54 437.125/150
Gurwin Techsat 1B 25 Mar 03:32:17 03:37:38 78° 288° (WNW) 03:42:56 435.225
ITAMSAT 1 25 Mar 03:36:21 03:40:28 23° 92° (E) 03:44:35 435.822/435.867
ITUPSAT 1 25 Mar 03:37:23 03:42:01 47° 261° (W) 03:46:39 437.325
KKS-1 25 Mar 03:48:54 03:52:39 27° 64° (ENE) 03:56:26 437.445
MOZHAYETS 4 25 Mar 03:54:22 03:58:58 74° 257° (WSW) 04:03:35
AO-7 25 Mar 03:55:25 04:02:41 32° 95° (E) 04:09:53 .
ISS 25 Mar 03:57:52 04:01:03 46° 212° (SSW) 04:04:14 437.550
Tancredo 1 25 Mar 04:05:55 04:08:54 36° 215° (SW) 04:11:53 437.200
AO-85 25 Mar 04:26:13 04:28:25 14° 29° (NNE) 04:30:38 145.980
STARS 25 Mar 04:29:38 04:33:32 31° 66° (ENE) 04:37:28 437.465
CUBESAT XI-V 25 Mar 04:42:01 04:46:33 62° 72° (ENE) 04:51:06 437.345
O/OREOS (USA 219) 25 Mar 04:48:23 04:51:21 17° 260° (W) 04:54:18 437.305
Gurwin Techsat 1B 25 Mar 05:14:01 05:16:44 14° 306° (NW) 05:19:27 435.225
ITAMSAT 1 25 Mar 05:15:11 05:20:16 54° 291° (WNW) 05:25:18 435.822/435.867
M-CUBED/EXP-1 PRIME 25 Mar 05:24:19 05:27:33 28° 59° (ENE) 05:31:01 437.505
KKS-1 25 Mar 05:24:56 05:29:04 37° 262° (W) 05:33:15 437.445
AO-7 25 Mar 05:47:48 05:56:01 67° 296° (WNW) 06:04:11 .
AO-85 25 Mar 06:05:37 06:09:32 70° 50° (NE) 06:13:31 145.980
STARS 25 Mar 06:05:55 06:09:51 31° 264° (W) 06:13:49 437.465
BEESAT 3 25 Mar 06:08:40 06:11:15 16° 31° (NNE) 06:13:50 437.485
XW-2C 25 Mar 06:12:39 06:13:47 11° 88° (E) 06:14:55 145.795 - 145.815
BEESAT 2 25 Mar 06:21:06 06:22:51 12° 25° (NNE) 06:24:34 435.950
CUBESAT XI-V 25 Mar 06:21:27 06:24:21 16° 271° (W) 06:27:16 437.345
STRAND 1 25 Mar 06:32:53 06:37:13 28° 63° (ENE) 06:41:34 437.568
CUTE-I 25 Mar 06:53:19 06:58:08 32° 95° (E) 07:02:53 437.470
M-CUBED/EXP-1 PRIME 25 Mar 06:58:42 07:01:58 29° 260° (W) 07:05:28 437.505
DOVE 4 25 Mar 07:00:58 07:06:14 58° 100° (E) 07:11:25 437.250
LilacSat-2 25 Mar 07:02:18 07:05:54 41° 98° (E) 07:09:28 437.200
YUBILEINY 25 Mar 07:03:01 07:09:38 25° 78° (ENE) 07:16:13 435.215
XW-2F 25 Mar 07:03:48 07:07:21 39° 98° (E) 07:10:51 145.980 - 146.000
XW-2D 25 Mar 07:28:37 07:32:24 84° 103° (ESE) 07:36:08 145.860 - 145.880
CUTE 1.7 + AOD 2 25 Mar 07:30:44 07:32:23 12° 88° (E) 07:34:04 437.475
NUDT-PHONESAT 25 Mar 07:33:46 07:37:28 76° 101° (E) 07:41:08 437.300
HO-68 25 Mar 07:33:47 07:39:08 22° 90° (E) 07:44:27 435.675
XW-2B 25 Mar 07:34:31 07:38:18 86° 284° (WNW) 07:42:03 145.730 - 145.750
KAITUO 1B 25 Mar 07:39:05 07:42:48 88° 106° (ESE) 07:46:29 145.475/437.950
AO-7 25 Mar 07:41:49 07:47:21 20° 318° (NW) 07:52:52 .
XW-2C 25 Mar 07:44:41 07:48:25 64° 285° (WNW) 07:52:07 145.795 - 145.815
BEESAT 3 25 Mar 07:45:28 07:49:31 78° 51° (NE) 07:53:32 437.485
AO-85 25 Mar 07:47:25 07:49:26 14° 248° (WSW) 07:51:27 145.980
BEESAT 2 25 Mar 07:57:38 08:01:35 47° 46° (NE) 08:05:31 435.950
XW-2A 25 Mar 08:09:53 08:13:01 33° 97° (E) 08:16:06 145.665 - 145.685
STRAND 1 25 Mar 08:11:15 08:16:11 46° 261° (W) 08:21:09 437.568
CUBEBUG 2 25 Mar 08:31:55 08:35:38 25° 93° (E) 08:39:13 437.445
CUTE-I 25 Mar 08:33:15 08:38:15 41° 294° (WNW) 08:43:13 437.470
LilacSat-2 25 Mar 08:37:19 08:39:55 18° 296° (WNW) 08:42:30 437.200
NO-84 25 Mar 08:37:29 08:40:18 66° 145° (SE) 08:43:10 435.350 FM
XW-2F 25 Mar 08:38:37 08:41:14 18° 296° (WNW) 08:43:50 145.980 - 146.000
DOVE 4 25 Mar 08:39:19 08:43:31 24° 298° (WNW) 08:47:41 437.250
ZACube-1 25 Mar 08:46:52 08:48:54 13° 88° (E) 08:50:54 437.345
AAUSAT CUBESAT 2 25 Mar 08:49:42 08:53:14 27° 94° (E) 08:56:46 437.432
YUBILEINY 25 Mar 08:56:40 09:05:26 81° 281° (W) 09:14:12 435.215
SEEDS 25 Mar 09:00:27 09:04:39 68° 102° (ESE) 09:08:48 437.485
CUTE 1.7 + AOD 2 25 Mar 09:04:32 09:08:44 74° 285° (WNW) 09:12:57 437.475
XW-2D 25 Mar 09:05:37 09:05:59 10° 301° (WNW) 09:06:21 145.860 - 145.880
NUDT-PHONESAT 25 Mar 09:09:58 09:10:50 11° 300° (WNW) 09:11:42 437.300
PRISM 25 Mar 09:11:32 09:15:15 36° 68° (ENE) 09:19:01 437.425
AO-73 25 Mar 09:15:06 09:18:30 23° 93° (E) 09:21:51 145.935
HO-68 25 Mar 09:20:28 09:27:40 82° 289° (WNW) 09:34:50 435.675
TIGRISAT 25 Mar 09:23:52 09:27:46 27° 65° (ENE) 09:31:39 435.000
BEESAT 3 25 Mar 09:24:42 09:26:33 13° 250° (WSW) 09:28:23 437.485
FO-29 25 Mar 09:29:13 09:35:57 34° 61° (ENE) 09:42:17 435.910
UNISAT 6 25 Mar 09:33:12 09:37:25 34° 67° (ENE) 09:41:37 437.425
BEESAT 2 25 Mar 09:35:55 09:39:07 22° 245° (WSW) 09:42:17 435.950
UWE-3 25 Mar 09:37:18 09:41:41 72° 101° (E) 09:45:55 435.000/436.395/437.385
XW-2A 25 Mar 09:43:14 09:45:33 17° 295° (WNW) 09:47:52 145.665 - 145.685
PCSat 25 Mar 09:49:42 09:53:58 24° 109° (ESE) 09:58:16 145.827
CUBEBUG 2 25 Mar 10:08:13 10:12:22 37° 292° (WNW) 10:16:21 437.445
NO-84 25 Mar 10:15:35 10:18:04 26° 345° (NNW) 10:20:38 435.350 FM
Oscar 11 25 Mar 10:16:28 10:20:48 85° 101° (ESE) 10:25:07 .
ZACube-1 25 Mar 10:21:26 10:25:42 67° 287° (WNW) 10:29:50 437.345
DELFI C3 25 Mar 10:21:48 10:25:22 31° 96° (E) 10:28:56 145.870
EO-79 25 Mar 10:23:48 10:25:03 11° 57° (ENE) 10:26:17 145.935-145.965
AAUSAT CUBESAT 2 25 Mar 10:25:03 10:28:43 31° 292° (WNW) 10:32:24 437.432
SEEDS 25 Mar 10:37:32 10:39:50 15° 300° (WNW) 10:42:08 437.485
AIST 2D 25 Mar 10:45:42 10:48:27 22° 67° (ENE) 10:51:14 435.315
PRISM 25 Mar 10:47:24 10:50:39 23° 266° (W) 10:53:55 437.425
POLYITAN 1 25 Mar 10:49:24 10:52:27 19° 62° (ENE) 10:55:31 437.675
AO-73 25 Mar 10:50:56 10:54:52 37° 291° (WNW) 10:58:43 145.935
QB50P2 25 Mar 10:53:38 10:56:57 22° 64° (ENE) 11:00:16 145.880/145.840
YUBILEINY 25 Mar 10:57:32 11:03:48 21° 304° (NW) 11:10:05 435.215
TIGRISAT 25 Mar 10:59:50 11:04:16 41° 263° (W) 11:08:42 435.000
DUCHIFAT 1 25 Mar 11:07:48 11:11:12 24° 64° (ENE) 11:14:37 145.980
HO-68 25 Mar 11:09:24 11:14:24 21° 310° (NW) 11:19:24 435.675
UNISAT 6 25 Mar 11:09:56 11:14:07 31° 265° (W) 11:18:18 437.425
FO-29 25 Mar 11:12:49 11:20:35 64° 259° (W) 11:27:54 435.910
UWE-3 25 Mar 11:15:10 11:17:34 15° 301° (WNW) 11:19:56 435.000/436.395/437.385
BUGSAT 1 25 Mar 11:30:21 11:32:55 16° 60° (ENE) 11:35:30 437.445
PCSat 25 Mar 11:31:36 11:36:58 62° 308° (NW) 11:42:22 145.827
NANOSAT C BR1 25 Mar 11:52:07 11:56:21 70° 74° (ENE) 12:00:38 145.865
NO-84 25 Mar 11:53:57 11:56:18 21° 7° (N) 11:58:45 435.350 FM
Oscar 11 25 Mar 11:54:27 11:56:18 13° 302° (WNW) 11:58:10 .
EO-79 25 Mar 11:55:48 12:00:05 83° 73° (ENE) 12:04:24 145.935-145.965
DELFI C3 25 Mar 11:56:45 12:00:04 25° 294° (WNW) 12:03:22 145.870
VELOX 1 25 Mar 12:07:29 12:08:17 10° 87° (E) 12:09:04 145.980
AIST 2D 25 Mar 12:18:26 12:21:33 29° 264° (W) 12:24:42 435.315
LO-87 25 Mar 12:20:29 12:24:10 87° 107° (ESE) 12:27:49 145.935 - 145.965
ESTCUBE 1 25 Mar 12:22:54 12:27:14 45° 99° (E) 12:31:34 437.505/2401.250
POLYITAN 1 25 Mar 12:23:43 12:27:53 51° 260° (W) 12:32:06 437.675
RS-15 25 Mar 12:24:56 12:35:04 34° 104° (ESE) 12:45:26 29.354- 29.394
QB50P2 25 Mar 12:28:25 12:32:29 43° 261° (W) 12:36:36 145.880/145.840
DUCHIFAT 1 25 Mar 12:42:42 12:46:41 39° 262° (W) 12:50:42 145.980
SPROUT 25 Mar 12:59:01 13:02:50 30° 96° (E) 13:06:36 437.525
FO-29 25 Mar 13:03:13 13:06:48 14° 277° (W) 13:10:20 435.910
BUGSAT 1 25 Mar 13:03:36 13:07:48 65° 259° (W) 13:12:03 437.445
AO-7 25 Mar 13:09:33 13:14:42 18° 40° (NE) 13:19:51 .
Oscar 19 25 Mar 13:13:03 13:18:01 53° 69° (ENE) 13:23:01 437.125/150
Gurwin Techsat 1B 25 Mar 13:17:35 13:22:25 37° 65° (ENE) 13:27:16 435.225
PCSat 25 Mar 13:17:53 13:21:29 18° 331° (NNW) 13:25:07 145.827
DX 1 25 Mar 13:22:34 13:26:14 26° 95° (E) 13:29:54 434.975-435.025
50 SAT 25 Mar 13:23:19 13:26:36 37° 98° (E) 13:29:53 437.505
NANOSAT C BR1 25 Mar 13:30:32 13:32:33 13° 271° (W) 13:34:35 145.865
NO-84 25 Mar 13:31:20 13:34:20 50° 27° (NNE) 13:37:34 435.350 FM
EO-79 25 Mar 13:35:11 13:36:26 11° 273° (W) 13:37:41 145.935-145.965
VELOX 1 25 Mar 13:40:54 13:45:24 88° 110° (ESE) 13:49:52 145.980
ESTCUBE 1 25 Mar 14:00:16 14:03:47 23° 297° (WNW) 14:07:19 437.505/2401.250
UKube-1 25 Mar 14:04:49 14:09:03 48° 100° (E) 14:13:14 .
RS-15 25 Mar 14:34:11 14:46:19 84° 308° (NW) 14:58:50 29.354- 29.394
SPROUT 25 Mar 14:34:56 14:38:42 30° 294° (WNW) 14:42:26 437.525
SO-50 25 Mar 14:43:08 14:45:49 15° 111° (ESE) 14:48:29 436.795
Oscar 19 25 Mar 14:53:39 14:57:39 23° 268° (W) 15:01:41 437.125/150
50 SAT 25 Mar 14:57:01 14:59:24 17° 296° (WNW) 15:01:47 437.505
ITAMSAT 1 25 Mar 14:57:15 15:02:18 50° 68° (ENE) 15:07:21 435.822/435.867
Gurwin Techsat 1B 25 Mar 14:57:30 15:02:22 36° 264° (W) 15:07:16 435.225
AO-7 25 Mar 14:57:45 15:05:52 60° 63° (ENE) 15:13:59 .
DX 1 25 Mar 14:58:28 15:02:30 37° 293° (WNW) 15:06:32 434.975-435.025
NO-84 25 Mar 15:09:01 15:11:46 26° 223° (SW) 15:14:43 435.350 FM
VELOX 1 25 Mar 15:19:06 15:21:11 13° 303° (WNW) 15:23:16 145.980
BEESAT 25 Mar 15:19:09 15:23:04 25° 94° (E) 15:26:58 436.000
ITUPSAT 1 25 Mar 15:34:20 15:38:39 33° 96° (E) 15:42:57 437.325
UKube-1 25 Mar 15:41:32 15:44:46 21° 298° (WNW) 15:48:00 .
MOZHAYETS 4 25 Mar 15:46:35 15:49:59 20° 91° (E) 15:53:23
